Powrót do katalogu

SL-8 R/B

AktywnyLEO
NORAD 6061·ROCKET BODY·🇷🇺 Russia

Wystrzelony Jun 23, 1972 z Plesetsk Cosmodrome

Loading…

Następne Przeloty (najbliższe 24 godziny)

TLE

ŚwieżeSource: Space-Track

Epoka: Sep 14, 2026, 11:40 UTC

1 06061U 72043B   26257.48625704  .00000058  00000-0  25455-4 0  9995
2 06061  74.0543  59.4380 0018508  61.1735 299.1276 14.42198625844354

Śledź SL-8 R/B w czasie rzeczywistym z AllMySat

Download on the App Store